Wind_Speed
30 30 30 30 31 36 37 37 34 32 31 32 30 31 29 34 39 36 33 32 31 30
34 36 39 39 36 38 39 39 39 37 37 36 37 35 35 34 34 39 39 35 35 35
27 33 36 42 44 42 40 40 39 38 39 40 38 36 36 37 33 34 38 39 40 38
25 33 36 32 38 47 44 42 43 41 43 43 40 37 35 36 35 35 33 36 37 38
19 23 27 28 30 33 40 46 46 45 46 46 46 42 41 38 34 37 37 34 34 34
22 23 23 25 23 30 33 39 40 44 49 48 48 49 49 45 43 41 38 34 38 38
25 25 27 28 27 28 29 38 39 43 44 44 48 51 51 52 48 43 44 42 39 37
38 34 33 33 32 30 29 33 35 39 42 43 43 45 48 52 53 50 47 43 42 42
41 42 40 38 37 37 32 30 30 34 34 46 47 47 45 44 48 51 52 49 47 44
36 42 43 44 41 39 38 34 32 34 37 40 40 42 43 47 40 41 42 44 46 45
39 40 41 40 45 40 38 39 36 35 36 39 36 36 42 43 42 29 24 32 40 40
39 41 42 44 44 46 42 39 39 38 36 35 35 33 34 34 41 33 33 34 48 42
46 48 47 45 46 46 47 43 38 39 36 35 35 35 33 30 36 39 36 28 32 32
45 51 48 45 43 43 45 44 40 37 35 34 32 34 33 29 30 31 32 43 37 40
Wind_Direction
265 273 276 272 267 257 254 256 255 255 255 257 262 267 266 258 255 257 259 261 264 268
268 270 271 271 270 265 259 258 260 260 256 257 263 266 264 266 263 257 257 259 261 266
265 267 269 264 265 264 264 262 260 260 259 260 260 260 262 264 265 265 260 260 262 266
279 282 285 292 278 262 261 263 263 261 259 258 261 258 255 258 263 263 264 259 262 263
316 315 306 305 297 275 269 262 263 265 264 263 260 261 258 256 258 261 262 264 263 265
316 317 316 304 298 279 272 272 270 270 265 263 263 260 260 261 260 259 261 264 266 266
313 312 315 316 306 291 281 270 270 271 270 267 263 261 260 259 260 262 262 263 265 266
305 306 306 306 308 303 292 276 275 268 268 266 266 265 263 260 258 259 262 263 264 264
292 297 299 302 301 302 296 291 281 271 270 269 269 264 266 266 263 257 257 260 263 265
282 286 291 295 299 298 296 293 287 277 271 272 276 275 266 264 259 258 264 268 268 270
277 278 283 289 292 296 292 292 290 284 275 272 273 276 267 259 246 248 261 272 268 269
278 280 283 286 289 292 293 290 286 287 280 275 269 268 274 274 252 264 269 270 260 257
280 281 283 284 286 286 290 292 288 284 279 275 274 262 262 271 259 265 265 261 234 251
280 281 284 284 283 284 285 288 287 281 274 270 270 262 256 259 258 258 263 243 245 254
Height
1565 1564 1563 1562 1564 1564 1565 1565 1567 1567 1569 1570 1571 1571 1572 1572 1573 1575 1575 1575 1576 1576
1560 1559 1557 1557 1557 1558 1558 1558 1559 1561 1562 1563 1564 1565 1566 1566 1566 1568 1570 1570 1571 1571
1553 1551 1549 1547 1547 1549 1550 1551 1552 1552 1554 1555 1557 1558 1560 1560 1561 1562 1562 1564 1565 1565
1548 1545 1542 1539 1538 1540 1541 1542 1543 1544 1546 1548 1550 1551 1551 1552 1554 1554 1555 1556 1557 1558
1542 1539 1535 1532 1531 1531 1531 1533 1534 1536 1538 1539 1541 1543 1544 1544 1545 1546 1548 1549 1550 1550
1538 1534 1532 1529 1525 1524 1523 1523 1524 1524 1525 1529 1530 1533 1534 1535 1537 1539 1539 1541 1542 1543
1534 1531 1527 1524 1522 1519 1517 1515 1516 1515 1514 1516 1519 1520 1522 1524 1527 1529 1531 1532 1534 1534
1526 1524 1521 1519 1515 1513 1510 1508 1506 1506 1505 1505 1506 1507 1510 1513 1515 1519 1521 1522 1524 1525
1520 1516 1513 1510 1508 1505 1503 1501 1499 1497 1494 1494 1494 1496 1498 1500 1501 1504 1507 1509 1512 1514
1511 1507 1505 1501 1499 1498 1494 1492 1489 1487 1485 1484 1484 1480 1485 1489 1492 1494 1498 1503 1505 1505
1500 1497 1495 1492 1488 1487 1486 1482 1479 1477 1475 1474 1474 1473 1471 1474 1464 1483 1486 1496 1499 1496
1490 1486 1484 1481 1479 1474 1474 1472 1469 1466 1464 1463 1463 1464 1464 1465 1464 1465 1466 1475 1481 1486
1477 1474 1471 1470 1467 1464 1461 1459 1459 1455 1453 1452 1450 1452 1453 1453 1454 1453 1457 1461 1459 1464
1467 1461 1459 1457 1456 1453 1449 1447 1446 1445 1444 1442 1441 1441 1443 1445 1446 1447 1447 1452 1451 1456